Time,TemperatureF,DewpointF,PressureIn,WindDirection,WindDirectionDegrees,WindSpeedMPH,WindSpeedGustMPH,Humidity,HourlyPrecipIn,Conditions,Clouds,dailyrainin,SoftwareType,DateUTC
2013-03-05 00:00:00,30.6,17.2,29.72,West,270,4.0,8.0,57,0.00,,,-99.99,WeatherLink 5.5,2013-03-05 05:00:00,
2013-03-05 00:05:00,30.4,17.0,29.73,WNW,292,2.0,7.0,57,0.00,,,-99.99,WeatherLink 5.5,2013-03-05 05:05:00,
2013-03-05 00:10:00,30.3,16.9,29.73,WSW,247,5.0,9.0,57,0.00,,,-99.99,WeatherLink 5.5,2013-03-05 05:10:00,
2013-03-05 00:15:00,30.3,16.9,29.73,WSW,247,5.0,9.0,57,0.00,,,-99.99,WeatherLink 5.5,2013-03-05 05:15:00,
2013-03-05 00:20:00,30.3,16.9,29.73,WSW,247,3.0,9.0,57,0.00,,,-99.99,WeatherLink 5.5,2013-03-05 05:20:00,
2013-03-05 00:25:00,30.1,16.7,29.73,West,270,4.0,9.0,57,0.00,,,-99.99,WeatherLink 5.5,2013-03-05 05:25:00,
2013-03-05 00:30:00,30.1,16.7,29.73,West,270,4.0,9.0,57,0.00,,,-99.99,WeatherLink 5.5,2013-03-05 05:30:00,
2013-03-05 00:35:00,30.1,16.7,29.74,WNW,292,6.0,10.0,57,0.00,,,-99.99,WeatherLink 5.5,2013-03-05 05:35:00,
2013-03-05 00:40:00,30.1,16.7,29.74,West,270,5.0,11.0,57,0.00,,,-99.99,WeatherLink 5.5,2013-03-05 05:40:00,
2013-03-05 00:45:00,30.1,16.7,29.74,West,270,5.0,11.0,57,0.00,,,-99.99,WeatherLink 5.5,2013-03-05 05:45:00,
2013-03-05 00:50:00,30.1,16.7,29.75,West,270,2.0,7.0,57,0.00,,,-99.99,WeatherLink 5.5,2013-03-05 05:50:00,
2013-03-05 00:55:00,30.3,16.9,29.75,WSW,247,1.0,6.0,57,0.00,,,-99.99,WeatherLink 5.5,2013-03-05 05:55:00,
2013-03-05 01:00:00,30.3,16.9,29.75,WSW,247,1.0,6.0,57,0.00,,,-99.99,WeatherLink 5.5,2013-03-05 06:00:00,
2013-03-05 01:05:00,30.3,16.9,29.75,NW,315,3.0,15.0,57,0.00,,,-99.99,WeatherLink 5.5,2013-03-05 06:05:00,
2013-03-05 01:10:00,30.4,17.0,29.75,WNW,292,1.0,6.0,57,0.00,,,-99.99,WeatherLink 5.5,2013-03-05 06:10:00,
2013-03-05 01:15:00,30.4,17.0,29.75,WNW,292,1.0,6.0,57,0.00,,,-99.99,WeatherLink 5.5,2013-03-05 06:15:00,
2013-03-05 01:20:00,30.4,17.0,29.75,WSW,247,3.0,7.0,57,0.00,,,-99.99,WeatherLink 5.5,2013-03-05 06:20:00,
2013-03-05 01:25:00,30.4,17.0,29.75,West,270,3.0,9.0,57,0.00,,,-99.99,WeatherLink 5.5,2013-03-05 06:25:00,
2013-03-05 01:30:00,30.4,17.0,29.75,West,270,3.0,9.0,57,0.00,,,-99.99,WeatherLink 5.5,2013-03-05 06:30:00,
2013-03-05 01:35:00,30.3,16.9,29.76,West,270,5.0,7.0,57,0.00,,,-99.99,WeatherLink 5.5,2013-03-05 06:35:00,
2013-03-05 01:40:00,30.1,16.7,29.76,West,270,2.0,6.0,57,0.00,,,-99.99,WeatherLink 5.5,2013-03-05 06:40:00,
2013-03-05 01:45:00,30.1,16.7,29.76,West,270,2.0,6.0,57,0.00,,,-99.99,WeatherLink 5.5,2013-03-05 06:45:00,
2013-03-05 01:50:00,30.1,16.7,29.76,West,270,5.0,10.0,57,0.00,,,-99.99,WeatherLink 5.5,2013-03-05 06:50:00,
2013-03-05 01:55:00,30.1,16.7,29.76,WSW,247,3.0,9.0,57,0.00,,,-99.99,WeatherLink 5.5,2013-03-05 06:55:00,
2013-03-05 02:00:00,30.1,16.7,29.76,WSW,247,3.0,9.0,57,0.00,,,-99.99,WeatherLink 5.5,2013-03-05 07:00:00,
2013-03-05 02:05:00,30.1,16.7,29.76,WSW,247,3.0,9.0,57,0.00,,,-99.99,WeatherLink 5.5,2013-03-05 07:05:00,
2013-03-05 02:10:00,30.1,16.7,29.76,WSW,247,4.0,9.0,57,0.00,,,-99.99,WeatherLink 5.5,2013-03-05 07:10:00,
2013-03-05 02:15:00,30.1,16.7,29.76,WSW,247,4.0,9.0,57,0.00,,,-99.99,WeatherLink 5.5,2013-03-05 07:15:00,
2013-03-05 02:20:00,30.1,16.7,29.77,West,270,4.0,9.0,57,0.00,,,-99.99,WeatherLink 5.5,2013-03-05 07:20:00,
2013-03-05 02:25:00,30.1,16.7,29.77,WNW,292,3.0,10.0,57,0.00,,,-99.99,WeatherLink 5.5,2013-03-05 07:25:00,
2013-03-05 02:30:00,30.1,16.7,29.77,WNW,292,3.0,10.0,57,0.00,,,-99.99,WeatherLink 5.5,2013-03-05 07:30:00,
2013-03-05 02:35:00,30.1,16.7,29.77,WSW,247,3.0,8.0,57,0.00,,,-99.99,WeatherLink 5.5,2013-03-05 07:35:00,
2013-03-05 02:40:00,30.1,17.1,29.77,West,270,3.0,11.0,58,0.00,,,-99.99,WeatherLink 5.5,2013-03-05 07:40:00,
2013-03-05 02:45:00,30.1,17.1,29.77,West,270,3.0,11.0,58,0.00,,,-99.99,WeatherLink 5.5,2013-03-05 07:45:00,
2013-03-05 02:50:00,30.3,16.9,29.78,West,270,5.0,9.0,57,0.00,,,-99.99,WeatherLink 5.5,2013-03-05 07:50:00,
2013-03-05 02:55:00,30.1,17.1,29.78,WSW,247,3.0,7.0,58,0.00,,,-99.99,WeatherLink 5.5,2013-03-05 07:55:00,
2013-03-05 03:00:00,30.1,17.1,29.78,WSW,247,3.0,7.0,58,0.00,,,-99.99,WeatherLink 5.5,2013-03-05 08:00:00,
2013-03-05 03:05:00,30.1,17.1,29.78,West,270,3.0,10.0,58,0.00,,,-99.99,WeatherLink 5.5,2013-03-05 08:05:00,
2013-03-05 03:10:00,30.0,17.0,29.78,West,270,4.0,11.0,58,0.00,,,-99.99,WeatherLink 5.5,2013-03-05 08:10:00,
2013-03-05 03:15:00,30.0,17.0,29.78,West,270,4.0,11.0,58,0.00,,,-99.99,WeatherLink 5.5,2013-03-05 08:15:00,
2013-03-05 03:20:00,30.0,17.0,29.78,NW,315,2.0,13.0,58,0.00,,,-99.99,WeatherLink 5.5,2013-03-05 08:20:00,
2013-03-05 03:25:00,30.0,17.4,29.78,WSW,247,3.0,7.0,59,0.00,,,-99.99,WeatherLink 5.5,2013-03-05 08:25:00,
2013-03-05 03:30:00,30.0,17.4,29.78,WSW,247,3.0,7.0,59,0.00,,,-99.99,WeatherLink 5.5,2013-03-05 08:30:00,
2013-03-05 03:35:00,30.1,17.1,29.79,WNW,292,4.0,9.0,58,0.00,,,-99.99,WeatherLink 5.5,2013-03-05 08:35:00,
2013-03-05 03:40:00,30.3,17.3,29.79,West,270,2.0,8.0,58,0.00,,,-99.99,WeatherLink 5.5,2013-03-05 08:40:00,
2013-03-05 03:45:00,30.3,17.3,29.79,West,270,2.0,8.0,58,0.00,,,-99.99,WeatherLink 5.5,2013-03-05 08:45:00,
2013-03-05 03:50:00,30.3,17.3,29.80,West,270,4.0,7.0,58,0.00,,,-99.99,WeatherLink 5.5,2013-03-05 08:50:00,
2013-03-05 03:55:00,30.1,17.1,29.80,West,270,2.0,8.0,58,0.00,,,-99.99,WeatherLink 5.5,2013-03-05 08:55:00,
2013-03-05 04:00:00,30.1,17.1,29.80,West,270,2.0,8.0,58,0.00,,,-99.99,WeatherLink 5.5,2013-03-05 09:00:00,
2013-03-05 04:05:00,30.0,17.4,29.81,West,270,2.0,7.0,59,0.00,,,-99.99,WeatherLink 5.5,2013-03-05 09:05:00,
2013-03-05 04:10:00,30.0,17.4,29.81,WSW,247,0.0,4.0,59,0.00,,,-99.99,WeatherLink 5.5,2013-03-05 09:10:00,
2013-03-05 04:15:00,30.0,17.4,29.81,WSW,247,0.0,4.0,59,0.00,,,-99.99,WeatherLink 5.5,2013-03-05 09:15:00,
2013-03-05 04:20:00,29.8,17.2,29.81,West,270,2.0,7.0,59,0.00,,,-99.99,WeatherLink 5.5,2013-03-05 09:20:00,
2013-03-05 04:25:00,29.8,17.2,29.81,West,270,3.0,11.0,59,0.00,,,-99.99,WeatherLink 5.5,2013-03-05 09:25:00,
2013-03-05 04:30:00,29.8,17.2,29.81,West,270,3.0,11.0,59,0.00,,,-99.99,WeatherLink 5.5,2013-03-05 09:30:00,
2013-03-05 04:35:00,29.8,17.2,29.82,WNW,292,0.0,1.0,59,0.00,,,-99.99,WeatherLink 5.5,2013-03-05 09:35:00,
2013-03-05 04:40:00,29.8,17.6,29.82,West,270,3.0,11.0,60,0.00,,,-99.99,WeatherLink 5.5,2013-03-05 09:40:00,
2013-03-05 04:45:00,29.8,17.6,29.82,West,270,3.0,11.0,60,0.00,,,-99.99,WeatherLink 5.5,2013-03-05 09:45:00,
2013-03-05 04:50:00,29.8,17.6,29.83,West,270,3.0,7.0,60,0.00,,,-99.99,WeatherLink 5.5,2013-03-05 09:50:00,
2013-03-05 04:55:00,29.8,17.2,29.83,West,270,3.0,7.0,59,0.00,,,-99.99,WeatherLink 5.5,2013-03-05 09:55:00,
2013-03-05 05:00:00,29.8,17.2,29.83,West,270,3.0,7.0,59,0.00,,,-99.99,WeatherLink 5.5,2013-03-05 10:00:00,
2013-03-05 05:05:00,29.8,17.6,29.83,West,270,0.0,2.0,60,0.00,,,-99.99,WeatherLink 5.5,2013-03-05 10:05:00,
2013-03-05 05:10:00,29.7,17.5,29.83,West,270,1.0,4.0,60,0.00,,,-99.99,WeatherLink 5.5,2013-03-05 10:10:00,
2013-03-05 05:15:00,29.7,17.5,29.83,West,270,1.0,4.0,60,0.00,,,-99.99,WeatherLink 5.5,2013-03-05 10:15:00,
2013-03-05 05:20:00,29.5,17.3,29.84,West,270,0.0,1.0,60,0.00,,,-99.99,WeatherLink 5.5,2013-03-05 10:20:00,
2013-03-05 05:25:00,29.5,17.7,29.84,West,270,0.0,2.0,61,0.00,,,-99.99,WeatherLink 5.5,2013-03-05 10:25:00,
2013-03-05 05:30:00,29.5,17.7,29.84,West,270,0.0,2.0,61,0.00,,,-99.99,WeatherLink 5.5,2013-03-05 10:30:00,
2013-03-05 05:35:00,29.5,17.3,29.85,SW,225,0.0,1.0,60,0.00,,,-99.99,WeatherLink 5.5,2013-03-05 10:35:00,
2013-03-05 05:40:00,29.7,17.9,29.85,SW,225,0.0,2.0,61,0.00,,,-99.99,WeatherLink 5.5,2013-03-05 10:40:00,
2013-03-05 05:45:00,29.7,17.9,29.85,SW,225,0.0,2.0,61,0.00,,,-99.99,WeatherLink 5.5,2013-03-05 10:45:00,
2013-03-05 05:50:00,29.8,17.6,29.85,West,270,0.0,4.0,60,0.00,,,-99.99,WeatherLink 5.5,2013-03-05 10:50:00,
2013-03-05 05:55:00,30.0,17.8,29.85,West,270,0.0,6.0,60,0.00,,,-99.99,WeatherLink 5.5,2013-03-05 10:55:00,
2013-03-05 06:00:00,30.0,17.8,29.85,West,270,0.0,6.0,60,0.00,,,-99.99,WeatherLink 5.5,2013-03-05 11:00:00,
2013-03-05 06:05:00,30.3,17.7,29.85,West,270,1.0,8.0,59,0.00,,,-99.99,WeatherLink 5.5,2013-03-05 11:05:00,
2013-03-05 06:10:00,30.4,17.8,29.85,West,270,1.0,6.0,59,0.00,,,-99.99,WeatherLink 5.5,2013-03-05 11:10:00,
2013-03-05 06:15:00,30.4,17.8,29.85,West,270,1.0,6.0,59,0.00,,,-99.99,WeatherLink 5.5,2013-03-05 11:15:00,
2013-03-05 06:20:00,30.7,17.7,29.86,West,270,2.0,6.0,58,0.00,,,-99.99,WeatherLink 5.5,2013-03-05 11:20:00,
2013-03-05 06:25:00,30.7,17.7,29.86,WSW,247,1.0,6.0,58,0.00,,,-99.99,WeatherLink 5.5,2013-03-05 11:25:00,
2013-03-05 06:30:00,30.7,17.7,29.86,WSW,247,1.0,6.0,58,0.00,,,-99.99,WeatherLink 5.5,2013-03-05 11:30:00,
2013-03-05 06:35:00,30.9,17.8,29.87,West,270,1.0,6.0,58,0.00,,,-99.99,WeatherLink 5.5,2013-03-05 11:35:00,
2013-03-05 06:40:00,31.0,17.9,29.87,WNW,292,1.0,7.0,58,0.00,,,-99.99,WeatherLink 5.5,2013-03-05 11:40:00,
2013-03-05 06:45:00,31.0,17.9,29.87,WNW,292,1.0,7.0,58,0.00,,,-99.99,WeatherLink 5.5,2013-03-05 11:45:00,
2013-03-05 06:50:00,31.2,18.1,29.87,NW,315,2.0,6.0,58,0.00,,,-99.99,WeatherLink 5.5,2013-03-05 11:50:00,
2013-03-05 06:55:00,31.3,17.8,29.87,NW,315,2.0,7.0,57,0.00,,,-99.99,WeatherLink 5.5,2013-03-05 11:55:00,
2013-03-05 07:00:00,31.3,17.8,29.87,NW,315,2.0,7.0,57,0.00,,,-99.99,WeatherLink 5.5,2013-03-05 12:00:00,
2013-03-05 07:05:00,31.5,18.0,29.87,WSW,247,2.0,8.0,57,0.00,,,-99.99,WeatherLink 5.5,2013-03-05 12:05:00,
2013-03-05 07:10:00,31.6,17.7,29.87,WNW,292,5.0,9.0,56,0.00,,,-99.99,WeatherLink 5.5,2013-03-05 12:10:00,
2013-03-05 07:15:00,31.6,17.7,29.87,WNW,292,5.0,9.0,56,0.00,,,-99.99,WeatherLink 5.5,2013-03-05 12:15:00,
2013-03-05 07:20:00,31.9,18.0,29.88,WNW,292,4.0,9.0,56,0.00,,,-99.99,WeatherLink 5.5,2013-03-05 12:20:00,
2013-03-05 07:25:00,31.9,18.0,29.88,West,270,3.0,8.0,56,0.00,,,-99.99,WeatherLink 5.5,2013-03-05 12:25:00,
2013-03-05 07:30:00,31.9,18.0,29.88,West,270,3.0,8.0,56,0.00,,,-99.99,WeatherLink 5.5,2013-03-05 12:30:00,
2013-03-05 07:35:00,32.2,18.2,29.89,WSW,247,2.0,8.0,56,0.00,,,-99.99,WeatherLink 5.5,2013-03-05 12:35:00,
2013-03-05 07:40:00,32.2,17.8,29.89,WNW,292,4.0,9.0,55,0.00,,,-99.99,WeatherLink 5.5,2013-03-05 12:40:00,
2013-03-05 07:45:00,32.2,17.8,29.89,WNW,292,4.0,9.0,55,0.00,,,-99.99,WeatherLink 5.5,2013-03-05 12:45:00,
2013-03-05 07:50:00,32.5,18.1,29.89,West,270,2.0,7.0,55,0.00,,,-99.99,WeatherLink 5.5,2013-03-05 12:50:00,
2013-03-05 07:55:00,32.6,18.2,29.89,WSW,247,1.0,6.0,55,0.00,,,-99.99,WeatherLink 5.5,2013-03-05 12:55:00,
2013-03-05 08:00:00,32.6,18.2,29.89,WSW,247,1.0,6.0,55,0.00,,,-99.99,WeatherLink 5.5,2013-03-05 13:00:00,
2013-03-05 08:05:00,33.1,18.2,29.90,West,270,2.0,6.0,54,0.00,,,-99.99,WeatherLink 5.5,2013-03-05 13:05:00,
2013-03-05 08:10:00,33.2,17.9,29.90,West,270,5.0,8.0,53,0.00,,,-99.99,WeatherLink 5.5,2013-03-05 13:10:00,
2013-03-05 08:15:00,33.2,17.9,29.90,West,270,5.0,8.0,53,0.00,,,-99.99,WeatherLink 5.5,2013-03-05 13:15:00,
2013-03-05 08:20:00,33.7,18.4,29.90,West,270,5.0,9.0,53,0.00,,,-99.99,WeatherLink 5.5,2013-03-05 13:20:00,
2013-03-05 08:25:00,33.8,18.5,29.90,West,270,2.0,8.0,53,0.00,,,-99.99,WeatherLink 5.5,2013-03-05 13:25:00,
2013-03-05 08:30:00,33.8,18.5,29.90,West,270,2.0,8.0,53,0.00,,,-99.99,WeatherLink 5.5,2013-03-05 13:30:00,
2013-03-05 08:35:00,34.1,18.3,29.91,West,270,3.0,8.0,52,0.00,,,-99.99,WeatherLink 5.5,2013-03-05 13:35:00,
2013-03-05 08:40:00,34.3,18.5,29.91,WSW,247,2.0,6.0,52,0.00,,,-99.99,WeatherLink 5.5,2013-03-05 13:40:00,
2013-03-05 08:45:00,34.3,18.5,29.91,WSW,247,2.0,6.0,52,0.00,,,-99.99,WeatherLink 5.5,2013-03-05 13:45:00,
2013-03-05 08:50:00,34.6,18.8,29.91,WNW,292,1.0,7.0,52,0.00,,,-99.99,WeatherLink 5.5,2013-03-05 13:50:00,
2013-03-05 08:55:00,34.9,19.0,29.91,WNW,292,1.0,6.0,52,0.00,,,-99.99,WeatherLink 5.5,2013-03-05 13:55:00,
2013-03-05 09:00:00,34.9,19.0,29.91,WNW,292,1.0,6.0,52,0.00,,,-99.99,WeatherLink 5.5,2013-03-05 14:00:00,
2013-03-05 09:05:00,35.2,18.9,29.91,WNW,292,4.0,10.0,51,0.00,,,-99.99,WeatherLink 5.5,2013-03-05 14:05:00,
2013-03-05 09:10:00,35.3,19.0,29.91,WNW,292,2.0,8.0,51,0.00,,,-99.99,WeatherLink 5.5,2013-03-05 14:10:00,
2013-03-05 09:15:00,35.3,19.0,29.91,WNW,292,2.0,8.0,51,0.00,,,-99.99,WeatherLink 5.5,2013-03-05 14:15:00,
2013-03-05 09:20:00,35.7,18.9,29.92,WNW,292,2.0,7.0,50,0.00,,,-99.99,WeatherLink 5.5,2013-03-05 14:20:00,
2013-03-05 09:25:00,35.9,19.0,29.92,West,270,1.0,6.0,50,0.00,,,-99.99,WeatherLink 5.5,2013-03-05 14:25:00,
2013-03-05 09:30:00,35.9,19.0,29.92,West,270,1.0,6.0,50,0.00,,,-99.99,WeatherLink 5.5,2013-03-05 14:30:00,
2013-03-05 09:35:00,36.3,19.4,29.92,West,270,3.0,9.0,50,0.00,,,-99.99,WeatherLink 5.5,2013-03-05 14:35:00,
2013-03-05 09:40:00,36.5,19.6,29.92,West,270,1.0,7.0,50,0.00,,,-99.99,WeatherLink 5.5,2013-03-05 14:40:00,
2013-03-05 09:45:00,36.5,19.6,29.92,West,270,1.0,7.0,50,0.00,,,-99.99,WeatherLink 5.5,2013-03-05 14:45:00,
2013-03-05 09:50:00,37.2,19.8,29.92,West,270,2.0,6.0,49,0.00,,,-99.99,WeatherLink 5.5,2013-03-05 14:50:00,
2013-03-05 09:55:00,37.3,19.9,29.92,WSW,247,2.0,7.0,49,0.00,,,-99.99,WeatherLink 5.5,2013-03-05 14:55:00,
2013-03-05 10:00:00,37.3,19.9,29.92,WSW,247,2.0,7.0,49,0.00,,,-99.99,WeatherLink 5.5,2013-03-05 15:00:00,
2013-03-05 10:05:00,37.3,19.4,29.92,West,270,4.0,9.0,48,0.00,,,-99.99,WeatherLink 5.5,2013-03-05 15:05:00,
2013-03-05 10:10:00,37.5,19.6,29.92,West,270,3.0,8.0,48,0.00,,,-99.99,WeatherLink 5.5,2013-03-05 15:10:00,
2013-03-05 10:15:00,37.5,19.6,29.92,West,270,3.0,8.0,48,0.00,,,-99.99,WeatherLink 5.5,2013-03-05 15:15:00,
2013-03-05 10:20:00,38.2,19.7,29.92,West,270,2.0,10.0,47,0.00,,,-99.99,WeatherLink 5.5,2013-03-05 15:20:00,
2013-03-05 10:25:00,38.6,20.1,29.92,WNW,292,2.0,8.0,47,0.00,,,-99.99,WeatherLink 5.5,2013-03-05 15:25:00,
2013-03-05 10:30:00,38.6,20.1,29.92,WNW,292,2.0,8.0,47,0.00,,,-99.99,WeatherLink 5.5,2013-03-05 15:30:00,
2013-03-05 10:35:00,39.6,20.5,29.92,WNW,292,1.0,6.0,46,0.00,,,-99.99,WeatherLink 5.5,2013-03-05 15:35:00,
2013-03-05 10:40:00,40.2,20.0,29.92,West,270,2.0,7.0,44,0.00,,,-99.99,WeatherLink 5.5,2013-03-05 15:40:00,
2013-03-05 10:45:00,40.2,20.0,29.92,West,270,2.0,7.0,44,0.00,,,-99.99,WeatherLink 5.5,2013-03-05 15:45:00,
2013-03-05 10:50:00,39.9,20.3,29.92,WNW,292,5.0,10.0,45,0.00,,,-99.99,WeatherLink 5.5,2013-03-05 15:50:00,
2013-03-05 10:55:00,40.8,20.5,29.92,NE,45,2.0,8.0,44,0.00,,,-99.99,WeatherLink 5.5,2013-03-05 15:55:00,
2013-03-05 11:00:00,40.8,20.5,29.92,NE,45,2.0,8.0,44,0.00,,,-99.99,WeatherLink 5.5,2013-03-05 16:00:00,
2013-03-05 11:05:00,41.6,21.3,29.92,WNW,292,2.0,7.0,44,0.00,,,-99.99,WeatherLink 5.5,2013-03-05 16:05:00,
2013-03-05 11:10:00,41.3,21.0,29.92,WSW,247,4.0,11.0,44,0.00,,,-99.99,WeatherLink 5.5,2013-03-05 16:10:00,
2013-03-05 11:15:00,41.3,21.0,29.92,WSW,247,4.0,11.0,44,0.00,,,-99.99,WeatherLink 5.5,2013-03-05 16:15:00,
2013-03-05 11:20:00,41.2,20.9,29.92,West,270,6.0,11.0,44,0.00,,,-99.99,WeatherLink 5.5,2013-03-05 16:20:00,
2013-03-05 11:25:00,41.6,21.3,29.92,West,270,1.0,7.0,44,0.00,,,-99.99,WeatherLink 5.5,2013-03-05 16:25:00,
2013-03-05 11:30:00,41.6,21.3,29.92,West,270,1.0,7.0,44,0.00,,,-99.99,WeatherLink 5.5,2013-03-05 16:30:00,
2013-03-05 11:35:00,41.6,20.7,29.92,WSW,247,2.0,8.0,43,0.00,,,-99.99,WeatherLink 5.5,2013-03-05 16:35:00,
2013-03-05 11:40:00,42.2,20.7,29.92,NE,45,1.0,7.0,42,0.00,,,-99.99,WeatherLink 5.5,2013-03-05 16:40:00,
2013-03-05 11:45:00,42.2,20.7,29.92,NE,45,1.0,7.0,42,0.00,,,-99.99,WeatherLink 5.5,2013-03-05 16:45:00,
2013-03-05 11:50:00,41.3,21.0,29.92,WSW,247,5.0,9.0,44,0.00,,,-99.99,WeatherLink 5.5,2013-03-05 16:50:00,
2013-03-05 11:55:00,41.3,20.5,29.92,WSW,247,2.0,7.0,43,0.00,,,-99.99,WeatherLink 5.5,2013-03-05 16:55:00,
2013-03-05 12:00:00,41.3,20.5,29.92,WSW,247,2.0,7.0,43,0.00,,,-99.99,WeatherLink 5.5,2013-03-05 17:00:00,
2013-03-05 12:05:00,42.3,20.2,29.92,WSW,247,2.0,9.0,41,0.00,,,-99.99,WeatherLink 5.5,2013-03-05 17:05:00,
2013-03-05 12:10:00,42.9,20.8,29.92,NNW,337,1.0,8.0,41,0.00,,,-99.99,WeatherLink 5.5,2013-03-05 17:10:00,
2013-03-05 12:15:00,42.9,20.8,29.92,NNW,337,1.0,8.0,41,0.00,,,-99.99,WeatherLink 5.5,2013-03-05 17:15:00,
2013-03-05 12:20:00,43.0,20.9,29.92,West,270,1.0,9.0,41,0.00,,,-99.99,WeatherLink 5.5,2013-03-05 17:20:00,
2013-03-05 12:25:00,43.6,20.8,29.92,NNW,337,2.0,8.0,40,0.00,,,-99.99,WeatherLink 5.5,2013-03-05 17:25:00,
2013-03-05 12:30:00,43.6,20.8,29.92,NNW,337,2.0,8.0,40,0.00,,,-99.99,WeatherLink 5.5,2013-03-05 17:30:00,
2013-03-05 12:35:00,44.3,20.9,29.92,NNE,22,2.0,8.0,39,0.00,,,-99.99,WeatherLink 5.5,2013-03-05 17:35:00,
2013-03-05 12:40:00,44.8,20.7,29.92,WNW,292,0.0,2.0,38,0.00,,,-99.99,WeatherLink 5.5,2013-03-05 17:40:00,
2013-03-05 12:45:00,44.8,20.7,29.92,WNW,292,0.0,2.0,38,0.00,,,-99.99,WeatherLink 5.5,2013-03-05 17:45:00,
2013-03-05 12:50:00,44.2,20.8,29.92,WNW,292,5.0,9.0,39,0.00,,,-99.99,WeatherLink 5.5,2013-03-05 17:50:00,
2013-03-05 12:55:00,43.5,20.7,29.92,WSW,247,7.0,10.0,40,0.00,,,-99.99,WeatherLink 5.5,2013-03-05 17:55:00,
2013-03-05 13:00:00,43.5,20.7,29.92,WSW,247,7.0,10.0,40,0.00,,,-99.99,WeatherLink 5.5,2013-03-05 18:00:00,
2013-03-05 13:05:00,43.2,20.5,29.92,SW,225,5.0,9.0,40,0.00,,,-99.99,WeatherLink 5.5,2013-03-05 18:05:00,
2013-03-05 13:10:00,43.6,20.8,29.92,SW,225,1.0,4.0,40,0.00,,,-99.99,WeatherLink 5.5,2013-03-05 18:10:00,
2013-03-05 13:15:00,43.6,20.8,29.92,SW,225,1.0,4.0,40,0.00,,,-99.99,WeatherLink 5.5,2013-03-05 18:15:00,
2013-03-05 13:20:00,44.2,20.8,29.92,West,270,3.0,6.0,39,0.00,,,-99.99,WeatherLink 5.5,2013-03-05 18:20:00,
2013-03-05 13:25:00,44.2,21.4,29.92,West,270,0.0,4.0,40,0.00,,,-99.99,WeatherLink 5.5,2013-03-05 18:25:00,
2013-03-05 13:30:00,44.2,21.4,29.92,West,270,0.0,4.0,40,0.00,,,-99.99,WeatherLink 5.5,2013-03-05 18:30:00,
2013-03-05 13:35:00,44.0,20.6,29.93,NE,45,1.0,4.0,39,0.00,,,-99.99,WeatherLink 5.5,2013-03-05 18:35:00,
2013-03-05 13:40:00,44.0,21.2,29.93,NE,45,0.0,1.0,40,0.00,,,-99.99,WeatherLink 5.5,2013-03-05 18:40:00,
2013-03-05 13:45:00,44.0,21.2,29.93,NE,45,0.0,1.0,40,0.00,,,-99.99,WeatherLink 5.5,2013-03-05 18:45:00,
2013-03-05 13:50:00,44.5,21.0,29.93,NE,45,1.0,4.0,39,0.00,,,-99.99,WeatherLink 5.5,2013-03-05 18:50:00,
2013-03-05 13:55:00,44.3,20.9,29.93,WNW,292,2.0,8.0,39,0.00,,,-99.99,WeatherLink 5.5,2013-03-05 18:55:00,
2013-03-05 14:00:00,44.3,20.9,29.93,WNW,292,2.0,8.0,39,0.00,,,-99.99,WeatherLink 5.5,2013-03-05 19:00:00,
2013-03-05 14:05:00,44.2,21.4,29.93,WSW,247,0.0,4.0,40,0.00,,,-99.99,WeatherLink 5.5,2013-03-05 19:05:00,
2013-03-05 14:10:00,44.2,20.8,29.93,WSW,247,2.0,6.0,39,0.00,,,-99.99,WeatherLink 5.5,2013-03-05 19:10:00,
2013-03-05 14:15:00,44.2,20.8,29.93,WSW,247,2.0,6.0,39,0.00,,,-99.99,WeatherLink 5.5,2013-03-05 19:15:00,
2013-03-05 14:20:00,44.2,20.8,29.93,WNW,292,1.0,6.0,39,0.00,,,-99.99,WeatherLink 5.5,2013-03-05 19:20:00,
2013-03-05 14:25:00,44.2,20.8,29.93,WNW,292,0.0,1.0,39,0.00,,,-99.99,WeatherLink 5.5,2013-03-05 19:25:00,
2013-03-05 14:30:00,44.2,20.8,29.93,WNW,292,0.0,1.0,39,0.00,,,-99.99,WeatherLink 5.5,2013-03-05 19:30:00,
2013-03-05 14:35:00,44.2,20.8,29.93,WNW,292,2.0,9.0,39,0.00,,,-99.99,WeatherLink 5.5,2013-03-05 19:35:00,
2013-03-05 14:40:00,44.0,21.2,29.93,WNW,292,2.0,9.0,40,0.00,,,-99.99,WeatherLink 5.5,2013-03-05 19:40:00,
2013-03-05 14:45:00,44.0,21.2,29.93,WNW,292,2.0,9.0,40,0.00,,,-99.99,WeatherLink 5.5,2013-03-05 19:45:00,
2013-03-05 14:50:00,44.0,20.6,29.94,West,270,2.0,8.0,39,0.00,,,-99.99,WeatherLink 5.5,2013-03-05 19:50:00,
2013-03-05 14:55:00,43.9,20.5,29.94,NE,45,1.0,6.0,39,0.00,,,-99.99,WeatherLink 5.5,2013-03-05 19:55:00,
2013-03-05 15:00:00,43.9,20.5,29.94,NE,45,1.0,6.0,39,0.00,,,-99.99,WeatherLink 5.5,2013-03-05 20:00:00,
2013-03-05 15:05:00,43.9,20.5,29.94,NE,45,0.0,2.0,39,0.00,,,-99.99,WeatherLink 5.5,2013-03-05 20:05:00,
2013-03-05 15:10:00,43.9,20.5,29.94,WSW,247,1.0,6.0,39,0.00,,,-99.99,WeatherLink 5.5,2013-03-05 20:10:00,
2013-03-05 15:15:00,43.9,20.5,29.94,WSW,247,1.0,6.0,39,0.00,,,-99.99,WeatherLink 5.5,2013-03-05 20:15:00,
2013-03-05 15:20:00,43.8,21.6,29.95,East,90,0.0,1.0,41,0.00,,,-99.99,WeatherLink 5.5,2013-03-05 20:20:00,
2013-03-05 15:25:00,43.8,21.0,29.95,East,90,0.0,1.0,40,0.00,,,-99.99,WeatherLink 5.5,2013-03-05 20:25:00,
2013-03-05 15:30:00,43.8,21.0,29.95,East,90,0.0,1.0,40,0.00,,,-99.99,WeatherLink 5.5,2013-03-05 20:30:00,
2013-03-05 15:35:00,43.8,21.0,29.95,North,-999,0.0,0.0,40,0.00,,,-99.99,WeatherLink 5.5,2013-03-05 20:35:00,
2013-03-05 15:40:00,43.8,21.0,29.95,WSW,247,0.0,2.0,40,0.00,,,-99.99,WeatherLink 5.5,2013-03-05 20:40:00,
2013-03-05 15:45:00,43.8,21.0,29.95,WSW,247,0.0,2.0,40,0.00,,,-99.99,WeatherLink 5.5,2013-03-05 20:45:00,
2013-03-05 15:50:00,43.8,21.6,29.96,NE,45,0.0,7.0,41,0.00,,,-99.99,WeatherLink 5.5,2013-03-05 20:50:00,
2013-03-05 15:55:00,43.8,21.6,29.96,NE,45,0.0,4.0,41,0.00,,,-99.99,WeatherLink 5.5,2013-03-05 20:55:00,
2013-03-05 16:00:00,43.8,21.6,29.96,NE,45,0.0,4.0,41,0.00,,,-99.99,WeatherLink 5.5,2013-03-05 21:00:00,
2013-03-05 16:05:00,43.8,21.6,29.96,NE,45,0.0,2.0,41,0.00,,,-99.99,WeatherLink 5.5,2013-03-05 21:05:00,
2013-03-05 16:10:00,43.8,22.2,29.96,NE,45,0.0,1.0,42,0.00,,,-99.99,WeatherLink 5.5,2013-03-05 21:10:00,
2013-03-05 16:15:00,43.8,22.2,29.96,NE,45,0.0,1.0,42,0.00,,,-99.99,WeatherLink 5.5,2013-03-05 21:15:00,
2013-03-05 16:20:00,43.8,22.2,29.97,North,-999,0.0,0.0,42,0.00,,,-99.99,WeatherLink 5.5,2013-03-05 21:20:00,
2013-03-05 16:25:00,43.6,22.0,29.97,NE,45,0.0,4.0,42,0.00,,,-99.99,WeatherLink 5.5,2013-03-05 21:25:00,
2013-03-05 16:30:00,43.6,22.0,29.97,NE,45,0.0,4.0,42,0.00,,,-99.99,WeatherLink 5.5,2013-03-05 21:30:00,
2013-03-05 16:35:00,43.2,23.3,29.97,ENE,67,1.0,4.0,45,0.00,,,-99.99,WeatherLink 5.5,2013-03-05 21:35:00,
2013-03-05 16:40:00,43.0,23.6,29.97,ENE,67,0.0,4.0,46,0.00,,,-99.99,WeatherLink 5.5,2013-03-05 21:40:00,
2013-03-05 16:45:00,43.0,23.6,29.97,ENE,67,0.0,4.0,46,0.00,,,-99.99,WeatherLink 5.5,2013-03-05 21:45:00,
2013-03-05 16:50:00,42.8,24.4,29.98,North,-999,0.0,0.0,48,0.00,,,-99.99,WeatherLink 5.5,2013-03-05 21:50:00,
2013-03-05 16:55:00,42.8,24.4,29.98,North,-999,0.0,0.0,48,0.00,,,-99.99,WeatherLink 5.5,2013-03-05 21:55:00,
2013-03-05 17:00:00,42.8,24.4,29.98,North,-999,0.0,0.0,48,0.00,,,-99.99,WeatherLink 5.5,2013-03-05 22:00:00,
2013-03-05 17:05:00,42.5,24.7,29.98,North,-999,0.0,0.0,49,0.00,,,-99.99,WeatherLink 5.5,2013-03-05 22:05:00,
2013-03-05 17:10:00,42.5,24.7,29.98,North,-999,0.0,0.0,49,0.00,,,-99.99,WeatherLink 5.5,2013-03-05 22:10:00,
2013-03-05 17:15:00,42.5,24.7,29.98,North,-999,0.0,0.0,49,0.00,,,-99.99,WeatherLink 5.5,2013-03-05 22:15:00,
2013-03-05 17:20:00,42.2,24.9,29.98,North,-999,0.0,0.0,50,0.00,,,-99.99,WeatherLink 5.5,2013-03-05 22:20:00,
2013-03-05 17:25:00,42.0,25.2,29.98,North,-999,0.0,0.0,51,0.00,,,-99.99,WeatherLink 5.5,2013-03-05 22:25:00,
2013-03-05 17:30:00,42.0,25.2,29.98,North,-999,0.0,0.0,51,0.00,,,-99.99,WeatherLink 5.5,2013-03-05 22:30:00,
2013-03-05 17:35:00,41.9,25.1,29.99,North,-999,0.0,0.0,51,0.00,,,-99.99,WeatherLink 5.5,2013-03-05 22:35:00,
2013-03-05 17:40:00,41.8,25.0,29.99,North,-999,0.0,0.0,51,0.00,,,-99.99,WeatherLink 5.5,2013-03-05 22:40:00,
2013-03-05 17:45:00,41.8,25.0,29.99,North,-999,0.0,0.0,51,0.00,,,-99.99,WeatherLink 5.5,2013-03-05 22:45:00,
2013-03-05 17:50:00,41.5,25.6,29.99,NE,45,0.0,1.0,53,0.00,,,-99.99,WeatherLink 5.5,2013-03-05 22:50:00,
2013-03-05 17:55:00,41.5,25.6,29.99,ENE,67,1.0,6.0,53,0.00,,,-99.99,WeatherLink 5.5,2013-03-05 22:55:00,
2013-03-05 18:00:00,41.5,25.6,29.99,ENE,67,1.0,6.0,53,0.00,,,-99.99,WeatherLink 5.5,2013-03-05 23:00:00,
2013-03-05 18:05:00,41.3,25.9,29.99,ENE,67,0.0,2.0,54,0.00,,,-99.99,WeatherLink 5.5,2013-03-05 23:05:00,
2013-03-05 18:10:00,41.0,25.2,29.99,ENE,67,0.0,4.0,53,0.00,,,-99.99,WeatherLink 5.5,2013-03-05 23:10:00,
2013-03-05 18:15:00,41.0,25.2,29.99,ENE,67,0.0,4.0,53,0.00,,,-99.99,WeatherLink 5.5,2013-03-05 23:15:00,
2013-03-05 18:20:00,40.9,25.5,29.99,North,-999,0.0,0.0,54,0.00,,,-99.99,WeatherLink 5.5,2013-03-05 23:20:00,
2013-03-05 18:25:00,40.8,25.9,29.99,North,-999,0.0,0.0,55,0.00,,,-99.99,WeatherLink 5.5,2013-03-05 23:25:00,
2013-03-05 18:30:00,40.8,25.9,29.99,North,-999,0.0,0.0,55,0.00,,,-99.99,WeatherLink 5.5,2013-03-05 23:30:00,
2013-03-05 18:35:00,40.0,25.1,30.00,North,-999,0.0,0.0,55,0.00,,,-99.99,WeatherLink 5.5,2013-03-05 23:35:00,
2013-03-05 18:40:00,39.8,25.4,30.00,North,-999,0.0,0.0,56,0.00,,,-99.99,WeatherLink 5.5,2013-03-05 23:40:00,
2013-03-05 18:45:00,39.8,25.4,30.00,North,-999,0.0,0.0,56,0.00,,,-99.99,WeatherLink 5.5,2013-03-05 23:45:00,
2013-03-05 18:50:00,39.2,25.2,30.00,North,-999,0.0,0.0,57,0.00,,,-99.99,WeatherLink 5.5,2013-03-05 23:50:00,
2013-03-05 18:55:00,39.0,25.0,30.00,North,-999,0.0,0.0,57,0.00,,,-99.99,WeatherLink 5.5,2013-03-05 23:55:00,
2013-03-05 19:00:00,39.0,25.0,30.00,North,-999,0.0,0.0,57,0.00,,,-99.99,WeatherLink 5.5,2013-03-06 00:00:00,
2013-03-05 19:05:00,38.9,25.8,30.01,North,-999,0.0,0.0,59,0.00,,,-99.99,WeatherLink 5.5,2013-03-06 00:05:00,
2013-03-05 19:10:00,38.8,25.7,30.01,North,-999,0.0,0.0,59,0.00,,,-99.99,WeatherLink 5.5,2013-03-06 00:10:00,
2013-03-05 19:15:00,38.8,25.7,30.01,North,-999,0.0,0.0,59,0.00,,,-99.99,WeatherLink 5.5,2013-03-06 00:15:00,
2013-03-05 19:20:00,38.5,25.8,30.01,North,-999,0.0,0.0,60,0.00,,,-99.99,WeatherLink 5.5,2013-03-06 00:20:00,
2013-03-05 19:25:00,38.3,25.6,30.01,North,-999,0.0,0.0,60,0.00,,,-99.99,WeatherLink 5.5,2013-03-06 00:25:00,
2013-03-05 19:30:00,38.3,25.6,30.01,North,-999,0.0,0.0,60,0.00,,,-99.99,WeatherLink 5.5,2013-03-06 00:30:00,
2013-03-05 19:35:00,37.9,25.2,30.02,North,-999,0.0,0.0,60,0.00,,,-99.99,WeatherLink 5.5,2013-03-06 00:35:00,
2013-03-05 19:40:00,37.7,25.8,30.02,North,-999,0.0,0.0,62,0.00,,,-99.99,WeatherLink 5.5,2013-03-06 00:40:00,
2013-03-05 19:45:00,37.7,25.8,30.02,North,-999,0.0,0.0,62,0.00,,,-99.99,WeatherLink 5.5,2013-03-06 00:45:00,
2013-03-05 19:50:00,37.5,26.0,30.02,North,-999,0.0,0.0,63,0.00,,,-99.99,WeatherLink 5.5,2013-03-06 00:50:00,
2013-03-05 19:55:00,37.3,25.8,30.02,North,-999,0.0,0.0,63,0.00,,,-99.99,WeatherLink 5.5,2013-03-06 00:55:00,
2013-03-05 20:00:00,37.3,25.8,30.02,North,-999,0.0,0.0,63,0.00,,,-99.99,WeatherLink 5.5,2013-03-06 01:00:00,
2013-03-05 20:05:00,37.0,26.3,30.02,North,-999,0.0,0.0,65,0.00,,,-99.99,WeatherLink 5.5,2013-03-06 01:05:00,
2013-03-05 20:10:00,36.9,26.2,30.02,North,-999,0.0,0.0,65,0.00,,,-99.99,WeatherLink 5.5,2013-03-06 01:10:00,
2013-03-05 20:15:00,36.9,26.2,30.02,North,-999,0.0,0.0,65,0.00,,,-99.99,WeatherLink 5.5,2013-03-06 01:15:00,
2013-03-05 20:20:00,36.7,26.0,30.02,North,-999,0.0,0.0,65,0.00,,,-99.99,WeatherLink 5.5,2013-03-06 01:20:00,
2013-03-05 20:25:00,36.7,26.4,30.02,North,-999,0.0,0.0,66,0.00,,,-99.99,WeatherLink 5.5,2013-03-06 01:25:00,
2013-03-05 20:30:00,36.7,26.4,30.02,North,-999,0.0,0.0,66,0.00,,,-99.99,WeatherLink 5.5,2013-03-06 01:30:00,
2013-03-05 20:35:00,36.6,26.3,30.02,North,-999,0.0,0.0,66,0.00,,,-99.99,WeatherLink 5.5,2013-03-06 01:35:00,
2013-03-05 20:40:00,36.6,26.7,30.02,North,-999,0.0,0.0,67,0.00,,,-99.99,WeatherLink 5.5,2013-03-06 01:40:00,
2013-03-05 20:45:00,36.6,26.7,30.02,North,-999,0.0,0.0,67,0.00,,,-99.99,WeatherLink 5.5,2013-03-06 01:45:00,
2013-03-05 20:50:00,36.3,26.4,30.02,North,-999,0.0,0.0,67,0.00,,,-99.99,WeatherLink 5.5,2013-03-06 01:50:00,
2013-03-05 20:55:00,36.3,26.4,30.02,North,-999,0.0,0.0,67,0.00,,,-99.99,WeatherLink 5.5,2013-03-06 01:55:00,
2013-03-05 21:00:00,36.3,26.4,30.02,North,-999,0.0,0.0,67,0.00,,,-99.99,WeatherLink 5.5,2013-03-06 02:00:00,
2013-03-05 21:05:00,36.2,26.3,30.02,North,-999,0.0,0.0,67,0.00,,,-99.99,WeatherLink 5.5,2013-03-06 02:05:00,
2013-03-05 21:10:00,35.9,26.0,30.02,North,-999,0.0,0.0,67,0.00,,,-99.99,WeatherLink 5.5,2013-03-06 02:10:00,
2013-03-05 21:15:00,35.9,26.0,30.02,North,-999,0.0,0.0,67,0.00,,,-99.99,WeatherLink 5.5,2013-03-06 02:15:00,
2013-03-05 21:20:00,35.7,26.2,30.01,North,-999,0.0,0.0,68,0.00,,,-99.99,WeatherLink 5.5,2013-03-06 02:20:00,
2013-03-05 21:25:00,35.7,26.5,30.01,North,-999,0.0,0.0,69,0.00,,,-99.99,WeatherLink 5.5,2013-03-06 02:25:00,
2013-03-05 21:30:00,35.7,26.5,30.01,North,-999,0.0,0.0,69,0.00,,,-99.99,WeatherLink 5.5,2013-03-06 02:30:00,
2013-03-05 21:35:00,35.7,26.5,30.01,North,-999,0.0,0.0,69,0.00,,,-99.99,WeatherLink 5.5,2013-03-06 02:35:00,
2013-03-05 21:40:00,35.7,26.5,30.01,North,-999,0.0,0.0,69,0.00,,,-99.99,WeatherLink 5.5,2013-03-06 02:40:00,
2013-03-05 21:45:00,35.7,26.5,30.01,North,-999,0.0,0.0,69,0.00,,,-99.99,WeatherLink 5.5,2013-03-06 02:45:00,
2013-03-05 21:50:00,35.5,26.3,30.02,North,-999,0.0,0.0,69,0.00,,,-99.99,WeatherLink 5.5,2013-03-06 02:50:00,
2013-03-05 21:55:00,35.5,26.3,30.02,North,-999,0.0,0.0,69,0.00,,,-99.99,WeatherLink 5.5,2013-03-06 02:55:00,
2013-03-05 22:00:00,35.5,26.3,30.02,North,-999,0.0,0.0,69,0.00,,,-99.99,WeatherLink 5.5,2013-03-06 03:00:00,
2013-03-05 22:05:00,35.6,26.8,30.02,North,-999,0.0,0.0,70,0.00,,,-99.99,WeatherLink 5.5,2013-03-06 03:05:00,
2013-03-05 22:10:00,35.6,26.4,30.02,North,-999,0.0,0.0,69,0.00,,,-99.99,WeatherLink 5.5,2013-03-06 03:10:00,
2013-03-05 22:15:00,35.6,26.4,30.02,North,-999,0.0,0.0,69,0.00,,,-99.99,WeatherLink 5.5,2013-03-06 03:15:00,
2013-03-05 22:20:00,35.7,26.5,30.02,North,-999,0.0,0.0,69,0.00,,,-99.99,WeatherLink 5.5,2013-03-06 03:20:00,
2013-03-05 22:25:00,35.9,26.7,30.02,North,-999,0.0,0.0,69,0.00,,,-99.99,WeatherLink 5.5,2013-03-06 03:25:00,
2013-03-05 22:30:00,35.9,26.7,30.02,North,-999,0.0,0.0,69,0.00,,,-99.99,WeatherLink 5.5,2013-03-06 03:30:00,
2013-03-05 22:35:00,36.3,26.4,30.03,NNW,337,0.0,4.0,67,0.00,,,-99.99,WeatherLink 5.5,2013-03-06 03:35:00,
2013-03-05 22:40:00,36.5,26.6,30.03,West,270,0.0,4.0,67,0.00,,,-99.99,WeatherLink 5.5,2013-03-06 03:40:00,
2013-03-05 22:45:00,36.5,26.6,30.03,West,270,0.0,4.0,67,0.00,,,-99.99,WeatherLink 5.5,2013-03-06 03:45:00,
2013-03-05 22:50:00,36.9,27.7,30.04,North,-999,0.0,0.0,69,0.00,,,-99.99,WeatherLink 5.5,2013-03-06 03:50:00,
2013-03-05 22:55:00,36.9,28.0,30.04,ENE,67,0.0,1.0,70,0.00,,,-99.99,WeatherLink 5.5,2013-03-06 03:55:00,
2013-03-05 23:00:00,36.9,28.0,30.04,ENE,67,0.0,1.0,70,0.00,,,-99.99,WeatherLink 5.5,2013-03-06 04:00:00,
2013-03-05 23:05:00,36.7,28.5,30.04,North,-999,0.0,0.0,72,0.00,,,-99.99,WeatherLink 5.5,2013-03-06 04:05:00,
2013-03-05 23:10:00,36.7,28.5,30.04,East,90,0.0,1.0,72,0.00,,,-99.99,WeatherLink 5.5,2013-03-06 04:10:00,
2013-03-05 23:15:00,36.7,28.5,30.04,East,90,0.0,1.0,72,0.00,,,-99.99,WeatherLink 5.5,2013-03-06 04:15:00,
2013-03-05 23:20:00,36.6,28.8,30.04,North,-999,0.0,0.0,73,0.00,,,-99.99,WeatherLink 5.5,2013-03-06 04:20:00,
2013-03-05 23:25:00,36.6,29.1,30.04,North,-999,0.0,0.0,74,0.00,,,-99.99,WeatherLink 5.5,2013-03-06 04:25:00,
2013-03-05 23:30:00,36.6,29.1,30.04,North,-999,0.0,0.0,74,0.00,,,-99.99,WeatherLink 5.5,2013-03-06 04:30:00,
2013-03-05 23:35:00,36.5,29.0,30.04,North,-999,0.0,0.0,74,0.00,,,-99.99,WeatherLink 5.5,2013-03-06 04:35:00,
2013-03-05 23:40:00,36.5,29.3,30.04,East,90,0.0,1.0,75,0.00,,,-99.99,WeatherLink 5.5,2013-03-06 04:40:00,
2013-03-05 23:45:00,36.5,29.3,30.04,East,90,0.0,1.0,75,0.00,,,-99.99,WeatherLink 5.5,2013-03-06 04:45:00,
2013-03-05 23:50:00,36.3,29.5,30.04,North,-999,0.0,0.0,76,0.00,,,-99.99,WeatherLink 5.5,2013-03-06 04:50:00,
2013-03-05 23:55:00,36.3,29.5,30.04,North,-999,0.0,0.0,76,0.00,,,-99.99,WeatherLink 5.5,2013-03-06 04:55:00,